www.pogodaiklimat.ru

Погода и климат >> Архив погоды >> Россия >> Крым >> Феодосия


АРХИВ ПОГОДЫ в Феодосии

Время (UTC), дата Ветер
(напр.,м/с)
 
Видим.   Явления Облачность Т
(С)
Тd
(С)
f
(%)
Тe
(С)
Тes
(С)
Комфортность P
(гПа)
Po
(гПа)
Тmin
(С)
Tmax
(С)
R
(мм)
R24
(мм)
S
(см)
00 18.03 Ю 1 10 км ясно +4.2 +2.7 90 +3 +3 по сезону 1020.6 1017.3
03 18.03 ЮЗ 2 10 км 4/0
[Ac trans]
+3.2 +1.9 91 0 0 по сезону 1020.4 1017.0 +3.2 0.1
06 18.03 В 1 10 км ясно +7.6 +6.2 91 +7 +11 тепло 1023.2 1020.0 +3.2
09 18.03 Ю 3 10 км 4/4 600 м
[Sc diur, vesp]
+12.3 +3.8 56 +11 +16 тепло 1024.5 1021.3
12 18.03 Ю 3 20 км 3/3 600 м
[Cu med, cong]
+12.8 -1.2 38 +12 +17 тепло 1023.2 1020.0
15 18.03 ЮВ 3 20 км ясно +10.5 -1.2 44 +9 +9 тепло 1023.2 1020.0
18 18.03 ЮВ 2 10 км ясно +7.8 +6.4 91 +6 +6 тепло 1024.5 1021.3 +12.5
21 18.03 Ю 2 10 км ясно +7.5 +6.4 93 +5 +5 тепло 1024.5 1021.3
00 19.03 Ю 2 10 км 3/3 600 м
[St]
+6.6 +5.7 94 +4 +4 тепло 1024.5 1021.3
03 19.03 В 2 10 км 8/8 600 м
[St]
+7.2 +6.3 94 +5 +5 тепло 1023.9 1020.6 +6.6
06 19.03 ЮВ 2 4000 м дымка 6/6 600 м
[St]
+8.6 +7.6 93 +7 +8 тепло 1024.1 1020.8 +6.6
09 19.03 ЮВ 2 10 км 3/3 600 м
[St]
+11.5 +1.4 50 +11 +20 тепло 1024.5 1021.3
12 19.03 Ю 2 10 км ясно +12.4 -3.8 32 +12 +20 тепло 1024.5 1021.3
15 19.03 Ю 1 10 км ясно +10.6 -8.6 25 +11 +11 тепло 1024.5 1021.3
18 19.03 Ю 1 10 км ясно +7.6 +5.4 86 +7 +7 тепло 1024.5 1021.3 +12.9
21 19.03 З 1 10 км ясно +5.7 +2.3 79 +5 +5 тепло 1024.5 1021.3
00 20.03 З 1 10 км ясно +5.9 +4.5 91 +5 +5 тепло 1024.5 1021.3
03 20.03 З 1 500 м туман ?/? +4.0 +3.3 95 +2 +2 по сезону 1023.7 1020.3 +4.0
06 20.03 СЗ 3 4000 м дымка {туман} 10/10 300 м
[St]
+5.1 +4.2 94 +1 +1 по сезону 1024.3 1020.9 +3.9
09 20.03 СЗ 4 10 км 10/10 600 м
[Sc]
+6.8 +3.9 82 +3 +3 по сезону 1024.5 1021.3
12 20.03 СЗ 4 10 км 8/8 600 м
[Sc diur, vesp]
+8.2 +4.0 75 +5 +7 по сезону 1024.5 1021.3
15 20.03 СЗ 4 10 км ясно +7.4 +3.1 74 +4 +4 по сезону 1024.5 1021.3
18 20.03 З 3 10 км ясно +4.8 +2.8 87 +1 +1 по сезону 1026.0 1022.7 +8.4
21 20.03 З 3 10 км ясно +6.2 -0.3 63 +3 +3 по сезону 1025.9 1022.7
00 21.03 З 2 10 км ясно +6.4 +1.3 70 +4 +4 по сезону 1025.9 1022.7
03 21.03 З 2 10 км ясно +5.0 +2.0 81 +2 +2 по сезону 1025.7 1022.3 +4.8
06 21.03 СЗ 3 4000 м дымка 10/10 600 м
[St]
+6.2 +4.6 89 +3 +3 по сезону 1026.9 1023.6 +4.8
09 21.03 З 6-12
{12}
10 км 8/8 600 м
[Sc]
+8.1 +4.5 78 +4 +5 по сезону 1028.5 1025.3
12 21.03 СЗ 5-10
{12}
20 км 5/5 600 м
[Sc]
+9.8 +0.5 52 +7 +9 по сезону 1027.1 1023.8
15 21.03 СЗ 2
{10}
20 км 6/4 600 м
[Sc diur, vesp Ci fib]
+10.1 -2.0 43 +9 +9 тепло 1026.4 1023.1
18 21.03 З 1 10 км 8/0
[Ci fib]
+5.9 -0.1 65 +5 +5 по сезону 1027.4 1024.0 +11.4
21 21.03 З 2 10 км 3/0
[Ci fib]
+7.0 -0.7 58 +5 +5 по сезону 1028.5 1025.3
00 22.03 З 3 10 км 9/9 600 м
[Sc]
+8.0 -1.8 50 +6 +6 тепло 1027.2 1024.0
03 22.03 З 3 10 км 8/4 600 м
[Sc Ac trans]
+6.9 +2.8 75 +4 +4 по сезону 1027.2 1024.0 +5.8
06 22.03 З 2 10 км 8/0
[Ac trans]
+7.6 +5.7 88 +5 +7 по сезону 1028.5 1025.3
09 22.03 ЮЗ 1 10 км 9/4 600 м
[Sc Ac trans]
+10.4 +2.5 58 +10 +12 тепло 1027.2 1024.0
12 22.03 Ю 2 10 км 9/9 600 м
[Sc diur, vesp]
+11.5 +2.5 54 +11 +11 тепло 1025.9 1022.7
15 22.03 Ю 2 10 км 9/4 600 м
[Sc Ac trans]
+9.3 +3.7 68 +8 +8 тепло 1023.2 1020.0
18 22.03 ЮЗ 1 10 км 6/0
[Ac trans]
+8.4 +2.0 64 +8 +8 тепло 1021.3 1018.0 +12.4
21 22.03 З 2 10 км в посл. час ливневой дождь 10/10 600 м
[Cb cap]
+10.6 +4.7 67 +9 +9 тепло 1020.5 1017.3
00 23.03 СЗ 3
{11}
10 км {ливн. осадки} 10/10 600 м
[Cb cap]
+6.4 +4.3 86 +3 +3 по сезону 1019.9 1016.6
03 23.03 З 1 10 км 6/6 600 м
[Cb cap]
+5.2 +1.7 78 +4 +4 по сезону 1017.6 1014.3 +5.2 0.0
06 23.03 З 2 10 км ясно +8.6 +0.3 56 +7 +11 тепло 1019.2 1016.0 +4.8 0.0
09 23.03 З 4
{11}
20 км 6/6 600 м
[Cb calv]
+10.0 -9.6 24 +8 +11 по сезону 1017.9 1014.7
12 23.03 СЗ 3 10 км в посл. час ливневой снег 10/10 600 м
[Cb cap]
+6.6 -4.3 46 +4 +4 прохладно 1017.4 1014.1
15 23.03 СЗ 3 20 км {ливн. осадки} 6/3 600 м
[Sc diur, vesp Ac cuf]
+4.8 -3.9 53 +2 +2 прохладно 1018.2 1014.9 0.0
18 23.03 З 4 10 км {ливн. осадки} 8/8 600 м
[Cb cap]
+3.2 +2.2 93 -2 -2 холодно 1019.5 1016.1 +10.0 0.6
21 23.03 З 2 10 км 10/10 600 м
[Cb cap]
+3.5 +2.0 90 +1 +1 по сезону 1020.6 1017.3
00 24.03 З 2 10 км 10/10 600 м
[Cb cap]
+3.7 +2.2 90 +1 +1 по сезону 1020.6 1017.3
03 24.03 З 2 10 км 10/10 600 м
[Sc]
+3.6 +1.6 87 +1 +1 по сезону 1020.0 1016.6 +3.2 0.6
06 24.03 СЗ 2 10 км 9/9 600 м
[Sc]
+4.3 +1.2 80 +2 +2 по сезону 1020.4 1017.0 +3.2
09 24.03 З 3 10 баллов 52 1017.3
12 24.03 СЗ 3 8 баллов 50 1017.3
15 24.03 СВ 1 9 баллов 43 1016.0
18 24.03 Ю 1 ясно 52 1017.3
21 24.03 СЗ 1 5 баллов 66 1016.0

 

Местоположение метеостанции Феодосия (Крым, Россия): широта 45.03 долгота 35.38 высота над уровнем моря 26 м.

В архиве по умолчанию представлена погода в Феодосии за последнюю неделю. Архивные данные за месяц целиком и за предыдущие месяцы, начиная с января 2011 года, Вы можете получить, выбрав интересующий диапазон дат из раскрывающегося списка и нажав кнопку "Ввод!".


*Определитесь, кто Вы:
робот инопланетянин человек

Внимание! Время в таблицах - всемирное. Для получения местного времени необходимо прибавить поправку, которая равна 3 ч.

Смотрите также архив погоды в соседних городах и на ближайших метеорологических станциях:

Погода в Владиславовке (Крым, Россия) (16 км)
Погода в Карадаге (Крым, Россия) (20 км)
Погода в Мысовом (Крым, Россия) (58 км)
Погода в Белогорске (Крым, Россия) (61 км)
Погода в Нижнегорском (Крым, Россия) (69 км)
Погода на Ангарском Перевале (Крым, Россия) (87 км)
Погода в Стрелковом (Херсонская область, Украина) (87 км)
Погода в Алуште (Крым, Россия) (87 км)
Погода в Керчи (Крым, Россия) (91 км)
Погода в Симферополе город (Крым, Россия) (100 км)

Пояснения к столбцам:

Ветер - указаны скорость ветра в м/с - средняя за 10 мин, порывы в срок и между сроками (в фигурных скобках) и направление, откуда дует ветер: С - северный, СВ - северо-восточный, В - восточный, ЮВ - юго-восточный, Ю - южный, ЮЗ - юго-западный, З - западный, СЗ - северо-западный.
Видимость - горизонтальная дальность видимости в метрах или километрах. При видимости от 1 до 10 км при отсутствии осадков обычно наблюдается дымка, при ухудшении видимости до 1 км и менее - туман. В сухую погоду видимость может ухудшаться дымом, пылью или мглою.
Явления - указаны атмосферные явления, наблюдавшиеся в срок или в последний час перед сроком; фигурными скобками обозначены явления, наблюдавшиеся между сроками (за 1-3 часа до срока); квадратными скобками обозначены град или гололедные отложения с указанием их диаметра в мм.
Облачность - указаны через наклонную черту общая и нижняя облачность в баллах и высота нижней границы облаков в метрах; квадратными скобками обозначены формы облаков: Ci - перистые, Cs - перисто-слоистые, Cc - перисто-кучевые, Ac - высококучевые, As - высокослоистые, Sc - слоисто-кучевые, Ns - слоисто-дождевые, Cu - кучевые, Cb - кучево-дождевые. Подробнее классификацию облаков см. в Атласе облаков (PDF).
T - Температура воздуха - температура, измеренная на высоте 2 м над землей.
Td - Температура точки росы - температура, при понижении до которой содержащийся в воздухе водяной пар достигнет насыщения.
f - Относительная влажность воздуха - влажноcть воздуха, измеренная на высоте 2 м над землей.
Te - Эффективная температура - температура, которую ощущает одетый по сезону человек в тени. Характеристика душности погоды. При расчете учитывается влияние влажности воздуха и скорости ветра на теплоощущения человека.
Tes - Эффективная температура на солнце - температура, которую ощущает человек, с поправкой на солнечный нагрев. Характеристика знойности погоды. Зависит от высоты солнца над горизонтом, облачности и скорости ветра. Ночью, в пасмурную погоду, а также при ветре 12 м/с и более поправка равна нулю.
P - Атмосферное давление - приведенное к уровню моря атмосферное давление.
Po - Атмосферное давление - измеренное на уровне метеостанции атмосферное давление.
Tmin - Минимальная температура - минимум температуры воздуха на высоте 2 м над землей.
Tmax - Максимальная температура - максимум температуры воздуха на высоте 2 м над землей.
R - Количество осадков - Количество выпавших осадков за период времени, мм. При наведении курсора мыши на число - период времени, за который выпало указанное количество осадков.
R24 - Количество осадков - Количество выпавших осадков за 24 часа, мм.
S - Снежный покров - Высота снежного покрова, см. При наведении курсора мыши на число - состояние снежного покрова и степень покрытия местности в баллах.